Seattle, WA

1:39 AM PDT on June 26, 2017 (GMT -0700)
Seattle-Tacoma International

Weather History for KSEA - October, 2006

Change the Weather History Date:

Wednesday, October 25, 2006

  Actual Average Record
Temperature  
Mean Temperature 47 °F 50 °F  
Max Temperature 52 °F 57 °F 67 °F (1965)
Min Temperature 42 °F 44 °F 31 °F (1954)
Degree Days  
Heating Degree Days 18 15  
Month to date heating degree days 280 286  
Since 1 July heating degree days 454 503  
Cooling Degree Days 0 0  
Month to date cooling degree days 0 0  
Year to date cooling degree days 270 189  
Moisture  
Dew Point 40 °F    
Average Humidity 76    
Maximum Humidity 89    
Minimum Humidity 63    
Precipitation  
Precipitation T in 0.14 in 1.16 in (1986)
Month to date precipitation 1.00 2.52  
Year to date precipitation 24.94 24.61  
Snow  
Snow 0.00 in - - ()
Month to date snowfall  
Since 1 July snowfall  
Snow Depth -    
Sea Level Pressure  
Sea Level Pressure 30.38 in    
Wind  
Wind Speed 7 mph (South)    
Max Wind Speed 12 mph    
Max Gust Speed 14 mph    
Visibility 10 miles    
Events      
T = Trace of Precipitation, MM = Missing Value Source: NWS Daily Summary

Daily Weather History Graph

Daily Weather History Graph

Search for Another Location

Airport or City:

Trip Planner

Search our weather history database for the weather conditions in past years. The results will help you decide how hot, cold, wet, or windy it might be!

Date:

Astronomy

Oct. 25, 2006 Rise Set
Actual Time 7:42 AM PDT 6:03 PM PDT
Civil Twilight 7:10 AM PDT 6:34 PM PDT
Nautical Twilight 6:35 AM PDT 7:10 PM PDT
Astronomical Twilight 5:59 AM PDT 7:46 PM PDT
Moon 11:52 AM PDT (10/25) 7:29 PM PDT (10/25)
Length of Visible Light 11h 23m
Length of Day
10h 20m
Waxing Crescent, 12% of the Moon is Illuminated
Oct 25
Waxing Crescent
Oct 29
First Quarter
Nov 5
Full
Nov 12
Last Quarter
Nov 20
New

Hourly Weather History & Observations

Time (PDT) Temp. Windchill Dew Point Humidity Pressure Visibility Wind Dir Wind Speed Gust Speed Precip Events Conditions
12:53 AM 42.1 °F 38.4 °F 39.0 °F 89% 30.22 in 10.0 mi SSE 5.8 mph - N/A   Scattered Clouds
1:53 AM 44.1 °F 40.1 °F 39.9 °F 85% 30.25 in 10.0 mi SSE 6.9 mph - N/A   Overcast
2:42 AM 44.6 °F 40.2 °F 39.2 °F 81% 30.25 in 10.0 mi South 8.1 mph - N/A   Overcast
2:53 AM 44.1 °F 40.1 °F 39.9 °F 85% 30.27 in 10.0 mi SSE 6.9 mph - N/A   Overcast
3:53 AM 43.0 °F 38.8 °F 39.9 °F 89% 30.29 in 10.0 mi SSE 6.9 mph - N/A   Mostly Cloudy
4:53 AM 43.0 °F 38.8 °F 39.0 °F 86% 30.31 in 10.0 mi South 6.9 mph - N/A   Mostly Cloudy
5:08 AM 42.8 °F 39.3 °F 39.2 °F 87% 30.29 in 10.0 mi SSE 5.8 mph - N/A   Mostly Cloudy
5:53 AM 44.1 °F 40.1 °F 39.0 °F 82% 30.33 in 10.0 mi South 6.9 mph - N/A   Mostly Cloudy
6:53 AM 43.0 °F 39.5 °F 39.0 °F 86% 30.36 in 10.0 mi South 5.8 mph - N/A   Mostly Cloudy
7:53 AM 42.1 °F 37.1 °F 37.9 °F 85% 30.38 in 10.0 mi South 8.1 mph - N/A   Scattered Clouds
8:53 AM 44.1 °F 39.5 °F 39.0 °F 82% 30.40 in 10.0 mi South 8.1 mph - N/A   Mostly Cloudy
9:53 AM 46.0 °F 43.9 °F 39.9 °F 79% 30.43 in 10.0 mi SSW 4.6 mph - N/A   Scattered Clouds
10:53 AM 48.9 °F - 41.0 °F 74% 30.44 in 10.0 mi SW 6.9 mph - N/A   Scattered Clouds
11:53 AM 48.0 °F - 39.9 °F 74% 30.45 in 10.0 mi SSW 4.6 mph - N/A   Mostly Cloudy
12:53 PM 50.0 °F - 42.1 °F 74% 30.45 in 10.0 mi SW 6.9 mph - N/A   Overcast
1:53 PM 50.0 °F - 39.0 °F 66% 30.44 in 10.0 mi Calm Calm - N/A   Overcast
2:53 PM 51.1 °F - 41.0 °F 68% 30.44 in 10.0 mi SSW 5.8 mph - N/A   Overcast
3:53 PM 51.1 °F - 39.0 °F 63% 30.45 in 10.0 mi South 3.5 mph - N/A   Overcast
4:53 PM 51.1 °F - 39.9 °F 66% 30.44 in 10.0 mi SSE 3.5 mph - N/A   Overcast
5:53 PM 51.1 °F - 42.1 °F 71% 30.43 in 10.0 mi SSE 8.1 mph - 0.00 in   Overcast
6:53 PM 50.0 °F - 41.0 °F 71% 30.43 in 10.0 mi SSE 9.2 mph - N/A   Overcast
7:53 PM 50.0 °F - 42.1 °F 74% 30.43 in 10.0 mi South 5.8 mph - N/A   Overcast
8:53 PM 50.0 °F - 42.1 °F 74% 30.44 in 10.0 mi South 5.8 mph - N/A   Mostly Cloudy
9:53 PM 50.0 °F - 42.1 °F 74% 30.44 in 10.0 mi South 9.2 mph - N/A   Overcast
10:53 PM 50.0 °F - 42.1 °F 74% 30.43 in 10.0 mi South 9.2 mph - N/A   Overcast
11:53 PM 50.0 °F - 42.1 °F 74% 30.43 in 10.0 mi South 9.2 mph - N/A   Overcast